Regional Weather Roundup
Issued by NWS

Home | Current Version | Previous Version | Graphics & Text | Print | Product List | Glossary On
Versions: 1 2 3 4 5 6 7 8 9 10 11 12 13 14 15 16 17 18 19 20 21 22 23 24 25 26 27 28 29 30 31 32 33 34 35 36 37 38 39 40 41 42 43 44 45 46 47 48 49 50
000
ASUS43 KLSX 231007
RWRMO

WEATHER SUMMARY FOR MISSOURI
NATIONAL WEATHER SERVICE SPRINGFIELD MO
500 AM CDT TUE SEP 23 2014

NOTE: "FAIR" INDICATES FEW OR NO CLOUDS BELOW 12,000 FEET WITH NO
       SIGNIFICANT WEATHER AND/OR OBSTRUCTIONS TO VISIBILITY.
       CURRENT SKY AND/OR WEATHER CONDITIONS ARE NOT AVAILABLE FOR
       CHILLICOTHE AND FARMINGTON.

MOZ001>031-035>038-043-044-053-054-231100-
...NORTHERN AND WESTERN MISSOURI...

CITY           SKY/WX    TMP DP  RH WIND       PRES   REMARKS
KANSAS CTY INT PTCLDY    54  51  90 SE9       30.21S
KANSAS C DTWN  PTCLDY    60  50  69 S7        30.22R
LEE`S SUMMIT   MOCLDY    57  51  80 SE7       30.23R
ST JOSEPH      MOCLDY    50  49  96 CALM      30.20S
CHILLICOTHE      N/A     50  48  93 CALM      30.25S
KIRKSVILLE     CLEAR     48  32  53 SE3       30.27R

$$
MOZ066>068-077>081-088>096-101>105-231100-
...SOUTHWEST MISSOURI...

CITY           SKY/WX    TMP DP  RH WIND       PRES   REMARKS
SPRINGFIELD    PTCLDY    53  48  83 SE7       30.24R
JOPLIN         CLEAR     54  50  86 SE6       30.23R

$$
MOZ032>034-039>042-045>050-055>058-069>072-231100-
...CENTRAL MISSOURI...

CITY           SKY/WX    TMP DP  RH WIND       PRES   REMARKS
COLUMBIA       PTCLDY    54  48  80 SE6       30.26R
JEFFERSON CITY PTCLDY    49  47  93 CALM      30.26R
ROLLA          PTCLDY    54  45  71 SE9       30.25R
SEDALIA        PTCLDY    52  47  83 SE3       30.24R
WHITEMAN AFB   CLEAR     52  48  87 SE2       30.23R FOG
OSAGE BEACH    CLEAR     48  45  87 S3        30.26R

$$
MOZ051-052-059>065-231100-
...EAST CENTRAL MISSOURI...

CITY           SKY/WX    TMP DP  RH WIND       PRES   REMARKS
ST LOUIS INTL  MOCLDY    52  48  86 CALM      30.28R
SPIRIT OF STL  FOG       46  45  96 CALM      30.26S VSB 3/4
ST CHARLES     PTCLDY    49  46  90 E3        30.27R

$$
MOZ072>076-082>087-097>100-106>115-231100-
...SOUTH CENTRAL AND SOUTHEAST MISSOURI...

CITY           SKY/WX    TMP DP  RH WIND       PRES   REMARKS
CAPE GIRARDEAU FOG       43  42  97 SW3       30.27R VSB 1/2
FARMINGTON     CLEAR     45  43  93 CALM      30.29S
POPLAR BLUFF   CLEAR     47  44  90 N3        30.25R
WEST PLAINS    CLEAR     46  43  89 CALM      30.27S

$$



USA.gov is the U.S. government's official web portal to all federal, state and local government web resources and services.